Wind_Speed
26 23 27 26 24 23 23 24 23 22 22 21 21 22 21 21 19 18 18 17 15 16 16 16 14 13 12 12 13 12 12 11 11 11 12 11 11 13 13 14 16 15
26 23 25 26 25 23 22 22 21 21 21 21 21 21 20 19 18 18 17 16 15 15 15 14 13 12 12 12 12 11 10 11 11 11 12 12 12 13 12 13 15 14
26 22 23 25 25 23 22 21 20 20 20 21 21 21 20 18 17 17 16 16 15 14 14 14 13 12 12 12 12 11 10 10 10 11 11 12 13 12 12 12 13 13
24 19 20 25 25 23 22 21 21 20 20 21 21 19 18 16 16 17 16 15 15 13 13 13 13 12 13 13 12 12 11 9 9 10 11 12 12 12 12 12 12 14
21 16 20 26 25 22 22 22 22 22 22 22 21 18 16 16 17 17 16 15 14 14 13 13 13 13 13 13 12 12 12 10 10 10 10 11 12 11 10 10 12 14
20 17 22 25 22 21 22 22 22 23 23 22 20 18 16 16 17 17 17 15 13 13 14 14 14 13 11 11 12 12 11 10 10 10 10 10 11 10 9 10 11 12
22 21 23 23 21 22 22 23 24 24 24 22 20 17 15 16 17 17 17 14 11 13 14 14 14 14 10 9 11 11 11 10 9 9 9 10 10 9 8 9 9 10
25 24 25 24 24 24 24 25 25 24 23 22 19 16 15 16 16 17 16 12 11 13 13 12 14 13 10 8 10 11 11 9 9 9 9 8 6 6 8 8 8 9
24 24 25 26 27 27 27 27 26 24 23 21 18 16 16 17 18 19 16 12 12 12 10 11 12 12 11 9 9 11 12 10 8 8 8 6 3 4 7 7 7 9
24 24 27 29 30 30 29 27 26 25 23 19 17 17 18 18 20 21 17 14 14 12 10 11 11 12 12 9 8 11 12 10 7 7 7 6 3 3 6 5 4 8
22 24 28 31 32 32 30 28 26 24 21 17 16 19 19 17 19 20 17 16 14 11 11 11 9 10 11 10 10 11 10 8 8 7 8 7 4 3 6 5 3 5
20 23 28 31 32 32 30 27 25 21 17 16 17 19 17 17 19 18 16 16 14 11 13 13 9 11 13 11 11 12 10 8 8 7 8 8 5 4 6 5 3 3
20 24 28 30 31 29 27 25 23 19 17 17 19 18 16 17 18 17 16 17 15 13 15 15 12 13 13 11 11 13 12 10 10 9 8 6 6 6 6 4 4 5
21 26 28 29 30 28 26 24 22 20 19 19 18 16 17 18 18 17 17 17 17 15 14 14 13 12 11 9 9 13 14 12 13 12 9 7 7 6 4 3 2 3
23 28 29 29 31 30 27 26 24 23 22 20 17 17 19 19 19 18 17 17 18 17 15 13 13 12 11 10 8 10 13 13 14 13 11 9 6 3 2 1 2 2
24 29 29 29 31 31 28 27 27 26 23 21 20 20 20 21 21 19 17 17 17 17 15 13 12 11 11 11 9 9 10 11 13 13 11 9 6 3 2 2 2 2
26 29 28 27 28 29 27 25 25 24 22 22 22 21 21 22 21 18 17 17 16 14 12 11 10 10 10 10 9 9 10 10 12 13 10 9 7 5 4 4 3 2
26 28 28 26 27 28 26 23 24 23 23 23 23 22 22 22 20 17 17 16 13 11 9 8 8 8 8 9 10 10 10 9 11 11 10 9 9 6 4 4 3 1
27 28 29 28 28 29 28 26 25 24 24 26 24 23 22 20 18 17 15 14 12 10 8 7 7 7 8 10 11 10 10 10 10 11 10 10 8 5 3 3 3 2
27 28 28 28 28 29 28 27 27 25 24 24 23 22 21 19 18 16 15 14 12 8 6 7 8 8 8 9 11 12 12 12 11 11 10 9 6 4 4 5 6 6
28 28 28 27 28 29 28 28 28 27 25 24 22 21 21 19 18 16 14 12 10 7 7 9 10 9 9 9 10 12 14 14 12 10 10 8 7 7 8 9 10 9
26 29 30 27 26 27 29 31 30 28 26 25 23 22 22 20 17 12 10 10 10 9 10 10 10 10 10 9 9 10 14 15 11 9 9 8 7 8 8 8 9 9
23 27 29 28 27 29 30 30 29 28 27 24 22 22 21 17 10 6 6 9 11 11 11 10 10 11 10 10 9 8 10 12 11 10 10 9 8 8 7 7 7 8
22 25 28 29 29 30 30 29 28 28 25 23 21 18 14 11 7 7 9 11 11 10 10 10 11 11 9 9 9 8 8 9 9 9 10 9 9 9 8 7 8 8
18 21 24 25 25 25 25 26 26 23 20 19 18 14 10 10 11 12 12 12 11 10 10 10 10 10 9 9 9 9 9 9 7 7 9 9 9 10 11 10 10 10
13 15 17 18 18 16 16 16 16 16 17 18 17 13 11 13 13 12 13 13 12 11 11 10 9 9 9 8 9 10 10 10 9 8 9 10 9 10 10 11 11 11
Wind_Direction
228 225 216 211 200 191 187 186 186 184 183 181 178 174 172 173 173 167 167 172 172 171 172 174 176 177 180 179 177 178 182 186 181 182 193 194 191 195 195 195 197 203
230 227 218 212 202 193 187 184 180 178 177 174 172 172 170 171 170 166 169 169 168 172 172 171 173 173 175 177 177 178 178 177 174 177 188 193 191 192 195 199 200 207
226 226 222 214 202 192 187 184 180 176 173 169 170 171 167 167 168 167 168 169 171 174 171 171 172 170 171 175 179 178 174 174 173 175 182 188 191 194 200 205 202 203
223 228 223 211 202 193 189 187 180 173 170 170 171 167 164 166 169 168 167 170 174 173 170 171 171 169 169 172 176 173 167 168 171 175 179 180 184 192 201 205 204 205
227 235 219 207 201 195 192 187 178 171 171 170 169 168 170 169 168 167 167 169 171 169 167 166 163 165 167 170 173 169 166 168 169 171 174 173 175 181 191 196 199 207
233 229 208 201 198 195 191 183 174 171 169 167 169 173 174 169 166 165 166 167 165 162 161 157 157 162 165 169 170 167 166 168 168 166 168 171 172 174 181 189 194 204
231 215 197 193 190 187 186 177 172 170 167 167 172 173 171 169 167 164 163 162 158 160 159 152 154 157 157 164 166 163 164 165 166 167 167 169 173 177 182 188 194 201
223 205 190 185 181 178 177 173 170 168 168 171 171 168 165 163 158 154 152 145 142 152 152 148 152 153 144 140 146 155 158 154 158 166 162 156 168 188 188 186 190 195
211 199 188 180 177 175 173 172 171 170 171 172 171 164 154 144 139 140 142 138 138 143 143 145 148 143 135 129 130 142 143 133 136 157 159 153 160 185 184 188 195 196
202 195 187 179 177 175 172 171 172 172 172 170 163 152 144 141 140 141 146 149 147 147 146 144 138 133 135 138 133 131 131 130 135 152 163 166 156 154 171 190 211 204
200 192 183 179 177 174 171 172 171 169 168 162 150 142 141 145 147 146 150 152 151 155 153 145 139 141 145 144 140 136 135 145 153 157 167 171 166 165 183 202 224 207
194 188 184 182 179 173 168 170 169 163 158 149 142 145 148 149 147 148 150 148 148 154 155 154 154 152 149 146 147 150 150 156 160 155 157 172 185 173 173 191 233 235
191 189 187 183 179 170 162 164 163 154 147 145 148 153 154 149 147 149 151 152 155 156 156 162 161 151 150 151 153 158 159 159 161 154 147 166 187 179 178 204 249 251
188 187 185 178 174 168 158 156 155 148 145 150 157 157 147 143 147 151 155 159 162 161 159 165 167 162 162 161 158 164 167 161 156 153 150 152 160 170 198 224 224 224
184 185 184 177 171 167 160 154 150 148 151 153 153 149 145 147 153 157 162 164 165 166 166 166 167 166 167 167 161 165 174 172 161 156 154 153 157 171 200 168 123 164
186 185 185 181 172 163 159 158 151 146 149 152 149 148 152 157 160 162 167 167 167 170 173 172 171 169 169 175 173 167 175 179 173 168 161 159 177 213 213 168 122 99
187 184 182 180 170 158 157 162 157 147 147 149 149 152 158 161 163 164 166 167 168 170 173 176 178 178 178 183 182 173 173 177 177 177 171 165 179 209 223 192 150 95
177 178 178 172 165 165 168 166 160 156 153 153 155 159 161 163 165 165 163 166 167 162 158 160 166 176 184 188 186 177 176 179 178 179 178 174 180 196 208 193 174 103
162 165 166 161 161 169 173 168 164 164 161 160 163 164 164 164 164 162 162 165 164 155 147 147 157 172 185 192 193 185 178 175 173 177 178 176 186 195 186 189 203 192
156 156 157 160 165 170 170 167 169 170 168 168 170 170 168 165 161 162 163 163 165 165 157 149 151 163 178 192 199 194 181 169 163 168 167 162 175 180 153 158 170 165
161 164 164 168 171 171 171 170 169 170 171 172 173 172 170 165 162 164 166 168 177 177 156 143 139 144 156 173 190 192 183 171 161 159 156 148 153 156 144 143 149 154
164 169 170 173 173 171 172 171 169 171 171 171 174 174 171 166 164 167 172 178 181 168 151 145 143 146 149 152 161 177 181 178 174 169 162 155 156 163 160 152 149 155
158 164 166 171 175 172 171 169 168 169 168 168 173 174 171 171 174 180 176 169 164 157 153 154 153 152 153 150 144 152 169 179 185 182 171 162 162 169 173 174 174 177
152 158 159 165 169 168 170 171 168 166 164 163 168 172 174 175 170 159 157 154 153 153 154 158 160 158 159 159 156 154 158 165 179 187 182 176 175 174 171 172 181 189
147 156 159 161 160 159 163 165 162 162 163 164 169 178 178 162 148 146 150 150 151 152 151 155 164 168 170 169 169 172 169 161 165 182 185 183 183 181 179 179 184 194
131 148 156 157 156 154 155 155 156 164 172 172 175 179 170 152 142 142 146 146 146 149 153 159 166 172 177 177 175 179 181 178 175 176 179 180 180 182 186 189 193 200
Height
1504 1506 1507 1507 1507 1506 1507 1509 1511 1513 1515 1518 1520 1522 1524 1525 1527 1528 1530 1532 1535 1537 1538 1540 1542 1544 1546 1547 1548 1550 1551 1552 1553 1554 1555 1557 1558 1558 1559 1560 1561 1562
1504 1505 1506 1508 1509 1509 1510 1511 1512 1513 1515 1517 1519 1521 1523 1524 1525 1527 1529 1531 1533 1535 1537 1539 1541 1543 1545 1546 1547 1549 1550 1551 1552 1553 1554 1555 1556 1557 1558 1559 1560 1561
1502 1504 1506 1508 1509 1510 1511 1512 1513 1514 1515 1517 1518 1520 1522 1523 1525 1526 1528 1530 1532 1534 1536 1538 1540 1542 1544 1545 1546 1548 1549 1550 1551 1552 1553 1554 1555 1556 1557 1558 1559 1560
1502 1504 1506 1508 1510 1511 1512 1513 1514 1514 1515 1516 1518 1519 1521 1522 1524 1525 1527 1529 1531 1533 1535 1537 1539 1541 1543 1544 1546 1547 1548 1549 1550 1551 1552 1553 1554 1555 1555 1556 1557 1558
1501 1503 1505 1507 1509 1511 1513 1513 1514 1514 1515 1516 1517 1519 1520 1521 1522 1524 1526 1528 1530 1532 1534 1536 1539 1540 1542 1544 1545 1546 1547 1548 1549 1550 1551 1552 1553 1554 1554 1555 1556 1557
1499 1501 1503 1506 1509 1511 1513 1513 1514 1514 1514 1515 1517 1519 1520 1520 1521 1523 1525 1527 1529 1532 1534 1536 1538 1540 1541 1543 1544 1545 1546 1547 1548 1549 1550 1551 1552 1553 1554 1555 1555 1556
1498 1499 1501 1504 1508 1511 1513 1513 1514 1514 1514 1515 1516 1518 1519 1520 1521 1522 1524 1527 1529 1531 1534 1536 1538 1539 1541 1542 1542 1544 1545 1546 1547 1548 1549 1550 1551 1552 1553 1554 1555 1556
1496 1498 1500 1503 1507 1509 1511 1513 1513 1514 1515 1515 1517 1518 1518 1519 1521 1522 1524 1527 1529 1532 1534 1536 1537 1539 1540 1541 1542 1543 1544 1545 1546 1548 1549 1550 1550 1551 1552 1553 1554 1555
1495 1498 1500 1503 1506 1508 1510 1511 1512 1514 1515 1515 1517 1517 1518 1519 1521 1523 1525 1527 1530 1532 1534 1535 1537 1538 1539 1540 1541 1542 1544 1545 1546 1547 1548 1549 1550 1550 1551 1552 1553 1553
1494 1497 1499 1502 1505 1507 1508 1510 1511 1513 1514 1515 1516 1517 1518 1519 1521 1523 1526 1528 1530 1531 1533 1535 1536 1538 1538 1539 1541 1542 1543 1545 1546 1547 1547 1548 1549 1550 1550 1551 1552 1552
1492 1495 1497 1501 1505 1505 1506 1508 1510 1511 1512 1514 1516 1517 1518 1520 1522 1524 1526 1528 1530 1532 1533 1535 1536 1537 1538 1539 1541 1542 1543 1545 1546 1547 1547 1548 1549 1550 1550 1551 1551 1552
1491 1494 1496 1500 1504 1504 1504 1507 1509 1510 1511 1513 1515 1517 1519 1520 1522 1525 1527 1529 1530 1532 1533 1534 1535 1537 1538 1539 1541 1542 1543 1544 1545 1546 1547 1548 1549 1549 1550 1551 1551 1552
1490 1493 1495 1499 1503 1503 1504 1507 1509 1509 1510 1513 1516 1518 1519 1521 1523 1525 1527 1528 1530 1531 1532 1534 1535 1536 1537 1539 1540 1541 1543 1544 1545 1546 1547 1548 1548 1549 1550 1550 1551 1551
1489 1492 1495 1498 1501 1502 1504 1507 1508 1508 1510 1514 1517 1518 1520 1522 1524 1525 1526 1527 1529 1530 1532 1534 1535 1536 1537 1538 1540 1541 1542 1543 1545 1546 1547 1547 1548 1549 1550 1550 1550 1550
1489 1492 1494 1498 1500 1501 1503 1506 1507 1509 1512 1515 1517 1518 1520 1522 1524 1525 1526 1527 1529 1531 1532 1534 1535 1536 1537 1538 1540 1541 1542 1543 1544 1546 1546 1547 1548 1548 1549 1550 1550 1550
1488 1491 1494 1497 1497 1498 1501 1504 1507 1509 1512 1514 1516 1518 1520 1522 1523 1525 1526 1527 1529 1530 1532 1534 1535 1536 1537 1538 1540 1541 1542 1543 1544 1545 1546 1547 1547 1548 1548 1549 1549 1550
1488 1491 1494 1496 1497 1497 1500 1505 1509 1511 1513 1514 1516 1518 1520 1522 1523 1524 1526 1527 1529 1531 1532 1533 1534 1535 1537 1538 1539 1541 1542 1543 1544 1545 1546 1546 1547 1547 1547 1548 1549 1549
1488 1490 1493 1497 1498 1499 1502 1507 1511 1513 1513 1514 1516 1519 1520 1522 1523 1524 1525 1527 1529 1530 1532 1533 1534 1535 1536 1538 1539 1541 1542 1543 1544 1545 1546 1546 1546 1546 1547 1547 1548 1549
1488 1490 1493 1496 1498 1501 1505 1509 1512 1513 1513 1515 1517 1519 1520 1521 1523 1524 1525 1527 1529 1530 1531 1532 1533 1534 1536 1537 1539 1541 1542 1543 1544 1545 1545 1546 1546 1546 1546 1547 1548 1549
1489 1491 1494 1496 1499 1503 1507 1509 1510 1511 1513 1515 1516 1518 1519 1521 1522 1524 1525 1527 1528 1529 1531 1532 1533 1534 1535 1536 1538 1540 1541 1543 1544 1544 1545 1545 1545 1545 1546 1547 1548 1548
1490 1493 1495 1497 1500 1503 1506 1508 1509 1510 1512 1514 1516 1518 1519 1521 1522 1524 1525 1527 1528 1529 1531 1532 1533 1534 1535 1536 1537 1539 1540 1542 1543 1544 1544 1544 1545 1545 1546 1546 1548 1548
1491 1494 1496 1498 1500 1503 1505 1508 1509 1510 1512 1514 1516 1518 1520 1521 1523 1524 1525 1526 1528 1529 1530 1532 1533 1534 1535 1536 1537 1538 1540 1541 1542 1542 1543 1543 1544 1545 1546 1547 1548 1548
1494 1496 1497 1499 1501 1503 1505 1507 1508 1510 1512 1514 1516 1519 1520 1521 1522 1523 1524 1526 1527 1529 1530 1532 1533 1534 1535 1536 1537 1538 1539 1541 1541 1541 1542 1543 1544 1544 1545 1546 1547 1548
1496 1497 1498 1500 1501 1502 1504 1506 1508 1510 1511 1513 1516 1519 1520 1521 1522 1523 1524 1525 1527 1529 1530 1531 1533 1534 1535 1536 1537 1538 1539 1540 1541 1541 1542 1542 1543 1544 1545 1545 1546 1547
1498 1499 1499 1501 1502 1503 1504 1506 1508 1509 1511 1513 1516 1518 1520 1521 1522 1522 1523 1525 1527 1528 1529 1531 1532 1533 1535 1536 1537 1538 1539 1540 1541 1541 1541 1542 1543 1543 1544 1545 1545 1546
1500 1500 1501 1502 1503 1504 1506 1508 1509 1510 1511 1513 1516 1518 1520 1521 1521 1522 1523 1525 1526 1528 1529 1530 1532 1533 1534 1535 1536 1538 1539 1540 1541 1541 1541 1541 1542 1543 1543 1544 1544 1544